Helicity
36 26 25 14 7 26 -1 53 63 43 27 93 50 88 115 116 108 114 27 69 117 172 175 124 144 136 144 160 179 181 176 170 167 161 170 157 129 89 53 29 26 24 17 1 -0 1 -1 -5 -1
35 33 18 17 2 8 18 89 36 70 52 61 80 44 73 70 36 28 50 55 109 166 183 154 138 124 143 167 174 173 167 170 165 183 169 143 115 70 49 34 29 18 5 -13 -11 -2 6 6 9
23 22 -4 12 -1 -19 26 61 61 52 28 40 49 60 66 41 27 38 11 96 105 149 176 187 158 150 159 169 177 176 167 158 150 159 144 119 99 71 50 43 45 31 15 -0 -15 8 15 22 28
24 38 32 -13 -22 22 31 58 55 24 69 37 56 96 27 92 46 17 7 105 110 120 154 189 171 168 172 179 183 177 151 131 133 146 121 115 105 77 68 59 52 40 24 24 25 31 33 42 37
29 29 5 -3 -0 19 17 43 36 26 63 32 39 68 68 62 44 9 55 86 149 121 127 142 152 172 171 169 174 159 135 124 150 125 121 117 110 91 70 67 77 60 36 41 48 46 50 50 48
27 18 9 -6 21 9 16 20 3 13 31 41 27 38 21 6 -8 -2 48 86 101 136 161 154 114 139 142 155 148 117 103 116 109 101 117 97 113 96 87 98 79 78 63 63 64 66 63 66 68
-4 11 15 -3 42 9 22 -4 -16 11 18 30 33 29 56 41 37 41 74 31 38 103 132 148 91 117 180 157 121 103 113 76 78 106 135 139 117 106 108 92 64 79 88 87 72 78 90 97 66
14 10 2 4 39 41 23 3 -18 1 21 9 15 32 32 34 44 64 110 147 202 260 352 376 286 258 199 134 94 83 100 83 112 138 171 143 118 110 92 65 88 66 89 91 98 123 128 97 93
9 21 -1 12 37 41 22 10 4 17 -45 -18 17 39 70 83 56 83 135 165 246 321 351 441 454 391 281 104 90 99 77 94 74 147 156 92 85 76 35 106 68 93 97 112 130 110 107 117 107
28 -20 9 32 38 62 32 17 13 -23 -26 -23 -0 51 81 75 82 147 172 223 227 312 356 420 511 431 490 286 216 70 45 29 64 127 103 82 70 58 70 76 111 110 126 142 114 103 69 19 44
16 18 15 21 31 25 13 3 10 -4 -10 3 3 44 71 61 89 145 181 186 215 240 287 529 497 524 341 245 283 336 82 35 92 82 75 76 67 60 56 61 63 52 85 69 57 53 58 74 55
3 -6 7 32 26 11 20 17 28 31 22 10 30 80 74 63 83 131 196 245 276 288 320 379 323 249 315 120 191 204 -18 3 81 93 70 47 56 38 51 60 56 57 56 73 63 70 85 78 79
-7 -9 4 18 10 29 20 24 15 11 14 15 72 80 82 131 149 146 205 224 271 414 633 778 463 272 138 68 15 3 4 31 30 35 46 15 34 58 65 63 65 72 53 61 82 84 78 79 75
-20 -11 28 16 19 20 -1 10 -13 40 -4 -11 51 73 90 87 107 133 178 193 285 320 220 106 100 227 209 182 13 -135 -37 6 35 26 17 51 53 61 75 68 73 69 66 81 85 82 72 71 51
13 14 26 36 8 5 9 1 3 49 -42 -18 -18 51 50 69 87 128 107 146 117 96 96 52 -113 -104 -120 -97 -74 -23 29 13 1 36 59 56 61 67 64 57 67 86 104 102 93 83 65 59 59
-2 3 16 54 6 17 9 34 24 65 -0 7 28 -0 46 40 37 119 38 33 -3 -7 -85 -200 -150 -85 -51 -34 22 31 -0 1 10 47 36 42 52 56 55 72 81 97 88 88 86 74 71 69 70
21 -9 -2 52 13 21 13 40 54 67 30 29 36 -12 -24 27 -18 -120 -77 -81 -87 -67 -90 -90 -29 42 24 -20 -11 11 -1 31 32 34 21 34 40 45 73 83 109 98 98 95 87 86 69 64 62
9 2 -6 -7 52 -1 25 65 58 64 35 34 13 30 -10 -34 -138 -72 -81 -65 -59 -4 7 8 21 32 -20 -37 -24 -6 -2 11 27 24 26 51 48 47 70 98 122 112 112 106 100 97 98 78 53
-31 -10 -6 -15 -52 -13 23 72 45 78 47 61 54 30 35 24 32 44 44 51 41 44 53 51 38 25 -42 -46 -35 -21 -9 13 26 26 39 52 59 77 93 123 136 126 115 119 115 120 91 57 20
5 11 16 -14 -38 6 33 38 -0 58 54 41 44 57 61 65 39 73 63 50 62 51 30 24 27 -6 -18 -21 -6 8 26 24 28 43 58 64 76 89 104 142 144 133 140 133 131 98 88 63 29
12 16 11 10 11 16 22 28 17 20 35 34 23 14 44 77 75 41 45 37 29 28 42 32 11 7 -0 2 22 39 60 51 49 60 92 75 95 112 120 138 158 159 147 159 157 133 103 47 50
13 6 24 18 26 12 -2 8 26 21 44 55 26 48 34 38 43 52 47 36 32 25 12 7 -17 -25 -7 16 45 49 49 56 64 97 102 93 108 120 126 144 172 167 164 179 191 167 115 88 73
24 -1 -6 11 4 14 36 14 62 -11 12 55 87 45 40 51 50 44 55 45 28 15 1 -10 -2 7 28 50 55 68 66 79 116 186 132 90 123 116 130 146 181 170 169 228 224 186 165 170 106
18 10 31 31 31 16 35 -10 24 12 -18 16 5 43 33 30 53 51 43 36 36 36 26 40 49 51 69 71 85 93 99 128 135 177 177 130 105 127 140 156 184 212 248 288 205 132 95 88 122
1 8 20 30 36 12 64 13 -41 -17 22 18 27 2 1 10 6 30 41 47 47 89 87 79 77 70 84 98 125 109 108 157 135 143 162 90 118 141 162 182 220 250 287 228 279 118 76 127 139
22 6 51 44 44 46 65 -9 13 34 31 32 18 20 20 12 6 -1 19 57 65 102 108 111 103 81 93 109 121 123 104 115 129 136 117 77 97 118 168 197 227 310 328 243 165 71 82 113 149
54 45 79 82 79 61 47 40 12 28 25 17 21 21 30 14 19 13 6 26 60 92 104 119 106 78 64 115 109 115 138 138 146 123 91 76 103 171 237 253 321 329 280 271 5 40 102 138 146
41 78 51 88 79 58 69 34 40 51 43 46 54 76 48 54 40 32 32 39 29 65 88 108 91 88 63 98 123 147 130 113 141 143 114 128 192 225 232 303 334 246 158 89 89 89 115 138 164
82 44 61 78 105 80 61 52 66 9 35 36 34 27 62 44 32 38 50 40 50 66 70 81 101 101 83 98 109 120 100 126 136 169 169 191 218 258 236 289 246 97 127 132 126 89 129 156 141
-14 -5 20 6 58 100 108 58 45 31 34 29 26 23 21 14 15 19 34 63 86 82 85 81 82 97 106 98 111 118 201 257 268 220 228 261 245 160 219 182 94 96 137 99 86 111 137 141 125
Wind_Speed
23 24 23 21 21 23 29 32 35 42 57 58 51 50 45 41 36 40 27 19 9 19 23 23 22 24 27 28 27 26 25 25 24 23 25 27 31 31 35 32 28 28 30 33 37 40 42 44 46
27 25 21 25 20 21 28 30 30 38 43 45 43 51 53 48 38 35 22 19 13 18 25 23 21 25 28 27 25 25 24 22 20 20 22 25 28 31 32 28 23 22 26 30 33 38 41 43 45
26 24 23 27 24 23 38 29 40 46 41 43 50 51 48 42 41 34 33 11 14 19 23 25 24 23 24 23 24 25 24 22 20 22 23 26 26 28 27 22 19 20 25 27 32 37 40 42 44
24 24 24 17 23 31 29 41 43 43 30 32 39 50 48 42 38 31 12 8 15 20 19 29 29 25 23 22 22 21 22 22 25 25 26 27 26 26 19 16 15 18 23 27 35 39 39 40 42
25 24 25 19 26 20 32 47 44 39 33 34 36 31 47 41 38 20 3 17 18 19 21 30 28 25 23 22 21 20 21 24 25 28 27 27 24 21 15 11 11 16 21 29 34 35 37 39 39
21 24 19 25 25 30 38 37 36 31 31 30 34 32 31 37 30 8 9 13 20 22 20 25 27 28 25 24 23 21 23 26 27 32 33 33 23 20 13 8 10 15 21 27 32 34 35 37 37
17 20 41 32 39 30 34 36 32 33 35 35 32 33 24 17 15 13 11 3 5 11 21 21 24 25 20 18 15 18 21 26 30 32 33 31 24 18 7 8 11 16 22 25 28 30 33 34 35
21 19 36 22 36 32 33 33 35 36 37 36 35 32 33 24 14 12 12 10 9 1 8 9 9 13 15 20 17 15 17 21 22 31 31 28 23 17 12 7 9 14 24 25 27 29 32 33 35
24 19 33 30 38 36 36 37 37 37 42 41 40 39 31 11 12 10 11 9 7 1 6 11 12 15 18 18 15 13 10 16 26 25 30 26 17 15 2 6 9 16 19 24 27 29 31 33 35
23 38 32 35 42 45 45 41 41 42 44 45 43 36 22 15 18 15 16 10 4 2 3 14 17 15 19 7 11 13 10 7 13 17 22 15 11 12 7 6 14 16 21 25 28 30 31 30 33
24 22 36 42 44 47 42 38 36 45 46 46 46 36 21 13 17 16 14 9 6 4 5 15 19 22 23 12 9 14 3 6 5 12 12 13 13 5 4 8 15 19 22 24 26 29 32 34 35
18 18 44 43 39 33 36 38 39 42 48 55 48 24 17 18 16 13 13 13 6 2 9 15 20 23 19 20 14 10 4 5 8 10 6 9 25 27 6 11 14 16 19 22 25 29 32 35 37
16 6 43 37 28 32 35 37 40 42 51 52 26 14 15 19 14 11 12 9 3 2 1 7 18 21 18 17 11 10 6 8 7 8 42 54 34 9 9 10 13 16 18 21 25 28 30 35 37
26 18 26 28 29 32 37 38 41 40 45 42 31 22 17 14 9 7 6 7 14 26 27 30 18 18 24 14 8 15 10 10 20 60 55 27 11 8 9 10 15 17 19 23 25 28 31 34 37
25 23 21 26 34 37 40 30 38 36 39 39 33 23 19 12 6 9 7 11 17 17 21 24 29 21 30 16 11 9 29 68 65 52 31 15 12 7 8 13 15 18 21 23 26 29 31 34 38
20 20 18 25 33 33 37 38 30 30 35 40 35 29 20 12 15 6 17 30 30 29 50 56 52 8 15 9 38 63 66 64 56 32 16 7 6 7 10 12 16 18 20 23 26 29 33 37 40
16 15 17 23 27 31 35 41 26 28 31 37 33 29 30 23 22 30 22 40 29 49 56 48 38 47 50 58 60 61 62 53 26 24 9 3 5 10 10 13 16 17 20 22 26 30 33 37 41
16 15 17 27 23 33 44 41 22 24 26 29 33 29 28 27 9 14 9 21 24 56 60 54 56 56 57 56 8 17 14 21 19 14 9 5 6 11 13 14 14 15 18 22 26 30 35 41 44
19 26 33 32 35 40 40 39 24 27 27 29 34 40 42 37 57 64 67 69 70 69 65 62 58 56 45 33 26 15 2 5 13 14 10 3 8 12 10 12 12 15 17 21 26 31 36 39 42
28 34 38 34 25 39 41 39 26 26 26 27 30 35 39 40 52 60 59 60 61 61 59 55 52 38 23 11 5 5 4 14 11 13 15 4 6 6 8 10 10 12 18 22 26 31 38 41 40
27 30 39 40 40 39 40 39 27 23 23 25 29 32 37 40 45 52 57 58 57 57 53 48 39 26 20 6 1 10 9 13 15 19 17 8 2 5 8 7 9 12 17 21 25 31 36 43 39
31 25 43 42 39 30 13 34 18 22 22 25 30 34 35 40 44 48 50 52 52 50 47 44 36 19 12 12 3 4 10 16 21 19 20 13 5 5 7 7 9 12 18 20 25 29 36 38 44
43 21 15 42 40 40 19 34 23 19 27 29 32 38 44 43 41 43 46 47 43 40 37 31 26 19 15 14 9 8 11 18 19 18 20 32 6 4 7 6 7 12 17 22 28 31 33 35 42
21 18 27 31 25 13 20 18 29 19 15 34 5 32 43 45 41 38 39 37 37 35 30 23 21 17 15 14 12 13 13 17 20 21 12 9 5 4 5 3 7 13 18 23 27 30 34 35 40
9 19 28 23 11 12 21 16 16 19 28 35 47 20 20 41 41 38 37 34 31 27 25 22 20 20 18 14 13 15 13 17 12 11 12 10 9 9 7 6 10 12 18 22 28 31 30 36 44
15 3 32 26 27 22 20 18 22 25 35 44 42 39 26 4 31 44 43 34 30 26 23 20 19 19 17 13 16 16 14 11 12 12 13 13 14 12 9 7 9 14 19 26 30 27 30 41 48
6 7 33 36 40 44 40 24 22 26 27 44 40 34 31 17 7 26 34 33 28 25 27 23 19 15 18 14 11 11 12 14 15 16 15 14 15 15 13 7 9 12 18 30 27 32 37 47 50
7 7 8 16 32 33 36 40 35 25 29 31 38 37 32 29 20 8 10 23 25 24 23 22 16 14 12 11 13 14 16 18 21 19 16 15 12 12 11 12 14 19 28 26 32 39 43 48 51
1 7 4 15 21 37 41 41 28 27 35 35 34 37 38 32 26 18 15 7 11 14 17 18 19 15 14 15 17 20 23 22 20 18 17 13 11 9 11 15 25 36 31 29 36 43 48 49 52
4 11 17 14 1 21 46 50 44 39 34 28 35 35 36 36 25 19 12 7 4 10 14 17 19 20 19 20 20 23 23 21 20 18 16 13 11 11 15 28 35 36 34 36 42 49 50 51 53
Wind_Direction
39 24 22 8 342 331 313 315 309 288 262 257 268 261 266 277 273 276 289 287 149 146 144 142 135 128 128 126 122 116 109 102 93 81 72 68 70 72 76 74 68 64 63 65 65 64 63 61 59
32 34 36 354 346 329 324 320 315 295 278 263 268 266 261 265 278 286 286 281 156 152 147 147 144 134 130 128 124 117 109 100 91 79 70 71 74 76 77 73 64 58 59 62 66 69 66 62 59
42 44 21 348 341 332 318 333 312 294 285 270 258 260 269 271 278 285 281 244 179 159 155 149 149 142 136 134 125 117 108 102 92 84 79 81 80 79 78 71 61 53 54 54 70 74 69 64 60
47 44 26 13 349 339 331 314 305 298 289 277 272 265 273 277 283 287 283 199 177 158 168 148 149 152 145 139 126 118 111 105 99 92 90 88 86 83 78 69 58 53 51 50 70 77 71 63 60
49 36 7 15 355 7 331 282 285 284 287 283 280 280 262 279 272 299 94 124 160 160 152 152 154 157 150 143 132 124 117 108 101 98 94 92 89 85 82 71 49 46 46 56 67 67 65 61 58
48 39 41 12 2 336 288 272 293 309 296 296 288 295 298 240 262 333 95 134 154 154 152 156 157 150 148 141 135 131 123 114 109 103 98 95 91 86 81 68 44 40 44 50 61 64 61 58 51
61 42 307 336 275 321 324 323 304 292 290 290 301 305 337 3 349 304 319 307 138 145 143 152 156 154 151 139 136 133 127 118 114 106 102 98 95 90 88 64 42 39 42 42 48 53 52 45 44
59 71 313 6 278 305 336 335 302 273 288 297 303 307 302 313 338 336 330 322 309 244 160 171 184 175 164 150 132 117 123 119 116 109 106 104 100 91 75 54 20 29 45 42 44 46 47 40 37
54 142 314 324 275 311 329 328 319 319 282 288 295 295 312 3 344 346 336 331 333 244 178 153 158 148 154 141 123 114 120 113 110 111 110 107 99 89 25 357 12 29 37 37 37 43 41 38 31
112 259 314 304 285 289 298 322 314 297 293 289 290 309 325 325 307 301 293 302 11 103 165 156 142 123 159 155 112 102 143 160 114 121 113 107 103 78 51 7 39 34 41 37 38 42 39 41 30
64 182 304 289 279 279 304 322 331 293 297 295 293 302 312 318 306 297 304 309 306 127 118 162 156 146 140 166 137 225 183 215 185 126 123 106 90 88 353 26 42 46 42 37 36 28 14 17 14
133 59 277 269 309 342 328 326 326 309 294 298 295 312 313 304 301 302 299 293 309 184 135 142 146 151 148 149 163 192 176 170 195 217 130 105 229 233 19 28 40 42 25 29 23 8 12 13 11
131 182 286 291 346 347 342 331 315 314 319 319 322 325 310 316 317 320 316 312 305 199 149 189 173 153 149 154 186 229 204 153 148 187 211 197 225 293 341 10 21 24 38 22 18 23 19 12 10
33 43 345 322 332 339 322 325 315 335 346 341 323 315 322 326 332 336 16 40 105 114 115 117 127 154 118 121 139 123 143 161 221 191 198 242 292 335 10 7 22 25 11 18 21 14 11 10 11
35 75 40 333 310 310 308 344 317 350 347 352 348 325 328 336 33 89 91 109 115 120 118 132 132 124 123 116 124 141 219 178 178 205 239 272 295 347 17 37 23 12 15 19 15 14 14 12 5
50 58 86 2 315 310 307 319 1 35 32 20 33 24 347 26 89 63 90 114 111 113 123 125 124 121 111 112 205 178 167 178 191 240 271 304 343 9 35 23 22 28 22 16 14 12 5 1 357
79 95 76 27 354 321 309 301 22 65 55 47 47 34 41 35 85 107 110 117 102 116 122 122 200 198 182 148 159 176 178 210 249 261 296 27 47 72 40 41 29 37 26 17 11 6 1 356 354
85 88 85 183 18 310 260 237 86 98 65 50 55 62 53 67 100 104 163 119 120 131 140 143 158 172 161 156 189 239 256 258 269 284 307 336 65 84 75 43 48 33 17 11 7 1 357 353 353
143 161 191 195 217 221 211 221 127 125 117 100 105 115 115 102 136 149 155 155 153 156 159 166 173 179 136 123 121 109 92 299 294 300 310 54 89 101 60 38 39 22 14 8 5 358 355 352 352
151 186 215 205 150 232 229 218 128 128 132 126 118 119 120 124 144 153 152 152 156 158 164 166 165 144 126 109 107 310 317 294 303 303 291 348 85 69 42 34 30 20 8 0 358 355 351 349 353
167 182 203 208 246 199 221 205 144 125 132 137 145 142 143 143 150 158 164 165 165 169 167 166 158 147 145 133 128 305 312 310 299 289 291 307 37 31 4 16 19 12 3 355 355 354 351 346 347
167 147 203 226 245 265 64 293 75 124 134 154 161 161 157 157 159 164 166 170 172 173 172 174 170 159 157 158 235 235 290 295 293 290 293 293 326 355 341 352 9 2 355 350 351 351 348 348 343
237 355 70 254 269 275 30 284 29 78 158 171 173 178 178 172 169 171 174 176 174 173 175 173 171 170 169 175 201 243 279 293 294 297 299 280 302 322 319 334 354 348 351 346 344 344 347 346 343
336 354 325 305 324 66 10 18 343 74 50 309 129 178 186 183 179 179 179 177 179 178 178 178 181 187 189 191 221 254 264 280 285 290 303 266 241 265 275 298 329 340 343 344 344 341 339 342 342
31 325 310 324 12 56 20 55 147 11 350 324 287 357 171 190 189 186 183 182 182 182 184 185 189 192 192 210 238 248 256 277 261 264 276 247 256 274 266 276 316 331 342 344 346 340 334 337 339
145 23 300 321 314 332 359 18 20 5 328 311 314 308 320 229 193 193 191 188 188 189 189 190 194 194 196 222 253 263 249 231 236 262 272 251 274 283 291 300 322 340 344 344 340 342 335 331 334
65 131 297 300 297 295 306 339 352 357 356 311 318 314 319 335 175 188 193 194 196 196 191 193 193 208 210 211 232 244 235 242 263 274 267 269 280 295 300 305 325 333 331 336 336 333 330 329 331
332 351 99 316 311 311 309 310 322 351 356 349 320 326 322 323 323 309 208 197 199 203 203 206 205 211 215 236 250 268 271 271 280 282 274 278 285 294 296 312 327 327 325 325 328 328 328 328 330
25 146 74 337 331 312 312 313 332 335 331 326 343 330 322 322 326 328 310 273 215 224 226 229 229 246 263 279 285 290 293 292 287 288 279 279 289 294 299 314 320 313 321 327 329 328 328 327 327
247 183 175 174 75 326 306 304 306 312 322 338 330 326 321 310 337 343 346 333 247 227 253 255 260 264 279 296 302 307 314 318 313 304 293 303 308 310 314 315 315 314 321 327 327 326 326 326 325